Wind_Speed
17 19 21 22 25 27 30 32 34 35 38 42 44 45 45 44 43 43 43 43 42 40 39 38 37 36 35 34 34 34 34 35 37 38 38 38 40 40 40 41 40 38 36 34
21 22 22 22 23 24 25 26 27 28 31 34 36 38 39 40 40 41 40 40 39 39 39 38 38 37 35 35 35 35 36 37 38 38 39 41 42 44 44 44 43 41 39 37
23 24 24 25 25 26 27 27 28 28 28 30 31 31 32 34 35 37 37 36 36 36 37 37 38 37 35 35 34 34 36 38 38 37 39 41 44 45 45 45 45 45 43 41
23 24 25 26 27 28 29 29 30 30 29 30 31 32 31 32 34 35 35 35 35 36 37 38 38 38 38 38 36 37 38 39 40 40 41 42 43 42 43 44 44 43 42 41
22 24 25 26 27 27 28 29 30 30 30 30 31 34 34 33 35 36 37 38 38 39 40 41 41 42 42 42 41 40 41 41 42 42 43 43 43 42 42 42 42 41 40 38
17 20 21 23 24 26 27 27 28 29 30 31 30 32 34 33 34 37 40 42 43 44 45 46 47 47 48 47 47 46 46 46 45 46 45 45 44 42 39 35 33 33 34 33
12 14 16 16 18 20 22 23 24 25 26 27 27 29 30 30 32 35 39 43 46 49 50 51 52 52 52 52 51 51 51 51 50 50 48 46 44 40 38 32 30 31 31 30
11 13 14 14 15 16 17 19 21 23 22 20 21 24 25 26 29 32 35 39 43 47 51 53 55 56 56 56 56 56 55 54 53 52 50 47 42 36 33 31 30 31 30 30
10 12 14 14 15 16 16 17 19 22 22 21 20 20 22 25 28 31 33 36 39 42 46 49 52 54 55 55 55 55 54 54 54 53 49 44 39 36 34 33 32 31 31 30
9 10 12 13 15 15 16 16 17 20 22 22 20 19 22 25 27 29 32 35 37 39 42 45 48 51 53 54 54 54 53 53 52 50 47 42 38 36 35 34 34 33 32 33
10 11 12 14 15 16 17 18 19 20 22 24 24 20 24 26 27 29 32 34 36 39 41 43 44 46 47 48 49 50 50 48 46 45 41 40 36 34 34 35 35 33 33 33
12 14 14 16 18 19 19 19 20 22 23 24 27 24 26 27 29 31 32 34 36 37 38 39 39 39 39 40 40 41 42 41 39 37 34 33 34 34 34 34 34 34 34 33
17 19 19 19 21 21 21 22 23 24 25 25 27 25 28 30 30 31 32 33 34 35 35 34 33 33 33 32 32 33 33 33 32 31 31 30 31 32 33 33 33 34 33 32
21 21 22 24 25 26 25 25 26 27 28 28 27 27 27 30 30 30 31 32 32 31 30 28 27 27 26 25 25 26 26 26 27 28 29 28 28 30 32 32 31 32 31 31
23 23 23 24 26 29 28 27 29 30 30 30 28 28 28 29 29 29 29 30 30 28 27 26 24 22 22 22 23 23 23 23 23 25 27 28 28 29 31 31 31 31 31 31
24 25 25 25 26 30 28 27 30 31 31 31 30 28 28 28 28 28 27 27 27 26 25 23 22 20 19 20 20 21 22 22 22 23 26 28 30 30 29 28 29 29 30 30
23 25 25 25 26 28 26 26 29 30 29 29 29 28 28 27 27 26 25 25 25 24 23 22 22 21 19 19 19 20 22 22 22 24 26 27 27 27 28 27 27 28 28 29
23 25 26 26 26 26 25 26 28 29 27 28 28 28 28 27 26 26 25 24 23 23 22 21 21 20 19 18 19 19 20 20 21 23 25 25 25 25 25 26 26 27 27 27
23 24 26 26 27 25 21 24 27 29 25 26 28 28 29 28 27 26 25 24 23 22 21 20 19 19 18 17 17 17 17 17 17 18 20 21 22 22 23 23 23 23 24 24
23 25 26 27 29 27 23 24 26 27 23 24 27 28 29 29 28 27 25 24 23 22 20 19 18 17 16 15 15 14 14 14 14 14 15 16 17 18 18 18 19 19 20 20
25 26 27 28 29 27 27 28 28 28 25 26 27 28 29 28 29 28 26 24 22 21 20 19 17 16 14 14 13 12 11 11 11 11 11 12 13 13 13 13 13 14 14 13
26 28 28 29 29 28 29 30 29 28 28 27 27 28 28 28 28 28 26 23 22 20 19 19 18 16 14 13 12 11 10 9 8 8 8 9 10 10 11 11 11 11 10 11
27 31 32 31 30 29 30 31 31 31 30 29 28 28 28 27 27 27 26 25 22 21 19 18 17 16 14 13 12 11 10 9 8 8 8 8 9 9 10 10 10 9 10 11
29 33 35 33 31 31 32 32 32 33 32 31 30 30 30 29 28 27 27 25 24 22 21 19 18 17 15 14 12 11 10 9 8 8 7 8 8 9 9 10 10 11 11 11
34 38 37 34 32 32 32 33 34 34 33 32 31 30 29 28 27 27 27 27 26 24 22 21 19 18 17 15 13 12 11 10 9 8 8 8 9 10 10 11 11 11 11 11
38 39 39 38 36 36 34 34 35 35 34 33 32 30 29 28 27 27 28 28 28 25 24 22 21 20 19 17 15 14 13 12 11 10 10 10 10 11 11 12 12 12 12 13
Wind_Direction
237 239 240 242 243 245 247 248 249 248 247 249 251 254 258 260 261 262 263 264 264 263 262 261 261 261 261 263 264 267 267 267 267 267 267 266 265 266 268 269 270 270 271 272
245 246 248 250 252 254 256 257 257 256 255 256 256 257 258 260 262 262 263 262 262 261 260 260 259 260 261 263 265 267 267 268 270 269 267 264 262 263 264 266 266 266 267 269
249 252 254 256 257 258 260 261 262 262 261 263 263 262 262 262 263 263 263 262 261 260 259 259 259 261 262 263 265 268 270 270 270 270 269 267 266 264 262 262 262 262 264 265
253 256 258 260 261 262 263 265 266 267 266 265 267 267 263 262 263 264 263 263 262 260 260 260 262 265 267 268 269 270 270 271 271 271 270 268 266 264 263 261 261 261 262 265
254 257 259 261 263 265 266 268 269 271 270 269 267 267 265 262 261 261 262 262 262 262 263 263 265 267 269 272 273 274 273 272 271 272 272 270 268 264 262 262 262 260 261 262
255 258 260 262 265 267 269 270 270 271 272 271 270 269 268 266 263 260 259 261 262 264 265 265 267 269 271 272 274 275 275 275 275 275 273 271 267 263 264 265 262 262 263 263
260 263 265 267 268 270 273 274 273 272 272 275 276 274 274 274 269 265 263 262 262 263 264 265 267 268 270 271 273 273 274 275 275 275 274 274 271 267 267 264 262 266 266 264
277 277 278 278 277 277 278 280 282 283 282 281 280 283 286 283 278 274 271 269 268 267 267 266 267 267 268 270 271 272 273 273 274 274 273 275 273 268 263 261 263 266 265 264
287 288 289 288 287 287 286 285 288 290 292 294 294 293 291 287 285 283 282 280 278 276 273 271 271 270 270 270 270 270 271 272 273 272 273 272 267 264 262 263 262 263 264 267
302 299 296 296 295 296 296 297 296 296 299 301 301 304 300 296 295 294 293 292 290 287 283 279 276 274 273 271 270 270 270 270 271 271 269 269 265 264 263 260 260 260 264 267
301 297 293 292 293 297 298 299 299 298 301 303 306 310 305 306 307 306 305 304 302 297 293 289 284 281 277 276 273 271 270 269 270 269 268 266 263 260 258 257 259 259 263 264
300 298 295 293 293 294 295 296 296 297 300 302 305 311 308 311 312 312 312 311 309 304 300 295 291 287 282 280 275 270 268 268 268 267 263 259 259 258 257 257 259 260 261 261
301 298 295 292 291 290 290 292 294 294 295 298 302 307 308 310 313 314 315 315 314 311 306 300 296 291 286 280 274 268 265 264 264 262 257 256 256 255 256 257 257 258 258 258
299 298 294 292 291 289 289 291 291 291 293 294 299 302 304 308 312 315 316 318 317 315 311 306 301 294 289 281 273 266 262 259 258 254 252 251 251 252 253 252 253 254 255 257
301 299 296 293 288 284 284 286 286 287 289 291 294 298 301 304 309 313 317 320 319 317 314 310 307 302 294 285 274 264 261 258 254 251 249 250 250 250 250 251 253 254 257 258
307 305 301 299 295 289 286 285 284 284 287 288 290 294 296 301 306 310 316 320 320 319 316 311 309 308 301 295 280 268 265 260 255 251 249 252 252 252 253 254 255 256 258 260
314 312 310 309 304 301 300 292 287 287 287 288 289 290 292 295 301 307 314 319 320 320 316 311 308 308 303 296 287 279 271 267 262 256 252 252 255 255 256 258 259 259 260 262
320 316 315 315 311 309 311 299 293 291 289 288 287 286 287 290 296 301 307 314 319 320 320 315 312 310 305 298 291 288 282 274 269 262 257 256 257 259 260 262 261 263 264 264
324 323 322 322 319 322 320 304 297 295 293 290 286 283 283 286 290 294 300 307 312 317 320 320 317 316 312 306 300 299 295 288 280 271 266 265 264 265 266 268 267 266 266 267
323 324 324 325 324 327 324 307 303 301 299 287 285 285 283 283 285 287 291 297 305 312 317 320 321 320 319 316 310 306 302 295 289 279 274 269 266 265 266 266 266 266 265 266
319 319 319 320 321 327 319 312 309 306 303 292 288 285 285 283 283 283 284 288 294 303 309 315 320 324 324 324 320 313 307 301 294 285 275 268 265 262 264 266 267 265 264 267
316 314 314 315 318 320 314 312 312 308 302 298 293 290 286 282 279 279 280 282 285 292 299 305 311 316 321 325 325 320 312 304 296 288 278 270 264 259 259 263 265 266 267 271
313 309 310 314 317 313 310 309 310 308 305 301 297 293 289 284 278 277 278 279 280 283 289 295 300 306 311 316 320 319 312 302 291 283 276 268 264 262 260 260 261 263 266 271
306 303 308 314 314 308 307 307 306 305 304 302 299 295 291 287 279 275 276 276 277 278 281 284 288 292 297 301 305 308 309 304 294 283 273 267 264 262 260 261 264 266 270 275
304 308 312 313 308 303 303 301 300 300 300 300 298 295 292 287 280 276 275 273 274 275 275 277 279 281 282 285 289 291 293 294 291 285 277 271 268 267 267 267 268 270 274 278
304 308 310 311 308 305 301 296 294 294 295 295 294 293 289 285 279 275 274 273 272 271 271 271 273 274 275 275 276 276 278 280 280 278 275 273 271 270 270 271 272 274 276 280
Height
5850 5852 5852 5854 5855 5856 5858 5860 5862 5864 5864 5865 5866 5867 5867 5868 5869 5870 5871 5872 5872 5873 5872 5873 5873 5873 5873 5873 5873 5873 5872 5872 5870 5870 5869 5868 5868 5867 5866 5866 5865 5865 5865 5865
5847 5848 5849 5850 5851 5852 5853 5855 5856 5857 5858 5858 5859 5860 5860 5861 5861 5861 5862 5863 5863 5863 5863 5863 5864 5864 5864 5864 5864 5864 5863 5862 5861 5860 5859 5858 5858 5857 5857 5857 5856 5856 5856 5856
5842 5844 5844 5846 5847 5848 5848 5849 5850 5851 5852 5851 5852 5853 5853 5853 5853 5853 5853 5854 5854 5855 5855 5854 5854 5853 5853 5853 5853 5854 5853 5852 5851 5850 5849 5848 5848 5847 5847 5846 5845 5846 5846 5846
5838 5839 5840 5841 5841 5842 5843 5843 5844 5844 5845 5846 5846 5845 5847 5846 5846 5846 5846 5846 5846 5846 5846 5845 5845 5845 5844 5843 5843 5844 5843 5842 5841 5840 5839 5837 5836 5836 5836 5834 5835 5835 5836 5836
5834 5835 5835 5836 5836 5837 5837 5837 5837 5837 5837 5838 5838 5837 5838 5839 5839 5838 5837 5837 5837 5837 5837 5837 5836 5836 5835 5835 5834 5833 5833 5832 5830 5829 5829 5827 5825 5824 5824 5824 5825 5826 5826 5827
5831 5831 5831 5831 5832 5832 5832 5832 5832 5831 5830 5831 5830 5830 5829 5830 5830 5830 5829 5828 5828 5827 5827 5827 5827 5826 5826 5825 5824 5824 5823 5822 5821 5819 5818 5816 5814 5812 5813 5814 5815 5817 5817 5818
5829 5828 5828 5828 5828 5828 5827 5827 5826 5825 5824 5824 5824 5822 5822 5822 5821 5820 5819 5818 5818 5817 5816 5816 5815 5814 5814 5813 5812 5812 5811 5811 5810 5809 5807 5805 5803 5802 5804 5805 5807 5808 5809 5809
5827 5827 5826 5825 5825 5824 5823 5823 5822 5820 5819 5819 5818 5816 5817 5815 5813 5811 5810 5808 5807 5806 5804 5803 5802 5802 5801 5801 5800 5799 5799 5798 5798 5797 5797 5796 5793 5792 5794 5796 5797 5799 5800 5800
5825 5825 5823 5822 5821 5821 5820 5819 5818 5816 5814 5813 5813 5812 5811 5807 5805 5803 5801 5799 5797 5795 5793 5791 5789 5788 5787 5787 5786 5786 5785 5785 5785 5785 5785 5784 5784 5784 5785 5786 5788 5789 5790 5791
5823 5822 5821 5819 5818 5817 5816 5815 5814 5811 5809 5807 5807 5806 5803 5800 5797 5795 5792 5789 5786 5783 5780 5777 5775 5773 5772 5771 5771 5771 5771 5771 5771 5770 5771 5773 5773 5774 5775 5777 5778 5780 5781 5782
5820 5820 5818 5817 5815 5814 5813 5811 5809 5807 5805 5802 5799 5802 5797 5793 5790 5787 5783 5779 5775 5772 5768 5764 5761 5758 5757 5756 5755 5756 5757 5757 5757 5757 5758 5760 5761 5763 5765 5767 5768 5770 5772 5773
5816 5816 5814 5813 5811 5809 5808 5806 5804 5803 5800 5796 5793 5796 5789 5786 5782 5778 5775 5770 5765 5761 5756 5752 5748 5745 5743 5742 5742 5742 5743 5745 5746 5746 5747 5748 5751 5753 5755 5757 5759 5761 5762 5763
5812 5811 5809 5808 5808 5805 5802 5800 5798 5796 5794 5791 5788 5789 5782 5778 5774 5770 5767 5762 5756 5751 5746 5742 5738 5735 5732 5731 5731 5732 5733 5734 5736 5736 5738 5739 5741 5743 5745 5747 5749 5751 5753 5754
5807 5806 5804 5803 5800 5797 5796 5794 5791 5789 5787 5784 5782 5780 5777 5771 5767 5764 5759 5754 5749 5743 5738 5734 5730 5727 5724 5723 5723 5723 5724 5725 5727 5729 5730 5730 5732 5734 5736 5738 5740 5742 5743 5745
5801 5800 5797 5796 5793 5790 5789 5787 5784 5781 5779 5777 5775 5772 5769 5765 5761 5758 5753 5748 5743 5738 5733 5729 5725 5722 5719 5717 5716 5717 5718 5718 5719 5720 5722 5723 5724 5726 5727 5729 5731 5733 5735 5736
5795 5793 5791 5789 5786 5782 5781 5780 5776 5774 5771 5769 5767 5765 5762 5758 5755 5751 5747 5743 5738 5734 5730 5726 5722 5718 5715 5713 5712 5711 5711 5711 5712 5713 5714 5715 5716 5717 5719 5721 5723 5725 5726 5728
5791 5787 5784 5782 5779 5774 5773 5772 5768 5765 5763 5761 5759 5758 5755 5752 5749 5745 5742 5738 5734 5730 5726 5723 5719 5715 5712 5709 5707 5706 5706 5705 5705 5706 5707 5707 5708 5709 5711 5713 5715 5717 5718 5720
5787 5783 5779 5776 5773 5769 5770 5763 5760 5757 5756 5754 5752 5750 5747 5745 5743 5740 5737 5734 5730 5727 5723 5719 5715 5712 5708 5705 5703 5701 5700 5699 5699 5700 5700 5701 5702 5703 5704 5706 5708 5710 5711 5712
5783 5779 5775 5771 5767 5765 5764 5758 5752 5749 5750 5747 5744 5742 5740 5738 5736 5734 5731 5729 5726 5723 5719 5715 5712 5708 5705 5702 5699 5697 5695 5694 5694 5694 5695 5695 5696 5698 5699 5700 5702 5703 5704 5705
5780 5776 5772 5767 5761 5759 5759 5753 5747 5745 5744 5741 5737 5735 5733 5731 5730 5728 5726 5723 5721 5718 5715 5712 5708 5705 5701 5698 5696 5694 5692 5691 5690 5690 5690 5691 5692 5693 5694 5695 5696 5697 5698 5699
5775 5771 5767 5762 5757 5754 5752 5746 5742 5739 5738 5734 5730 5728 5726 5724 5722 5721 5719 5717 5715 5713 5711 5708 5705 5701 5698 5695 5693 5691 5689 5687 5687 5686 5687 5687 5688 5689 5690 5691 5692 5692 5693 5694
5771 5766 5762 5757 5753 5751 5745 5740 5737 5733 5729 5726 5723 5720 5718 5716 5714 5712 5711 5710 5709 5707 5705 5703 5701 5698 5695 5692 5690 5688 5686 5685 5684 5684 5684 5684 5685 5686 5687 5688 5688 5689 5690 5690
5765 5760 5754 5751 5749 5744 5738 5733 5730 5725 5722 5719 5715 5713 5710 5708 5706 5704 5703 5702 5701 5701 5700 5698 5696 5694 5692 5690 5687 5686 5684 5683 5682 5681 5681 5682 5682 5683 5684 5684 5685 5685 5686 5686
5759 5752 5747 5744 5741 5736 5732 5727 5722 5718 5714 5711 5708 5705 5702 5700 5698 5696 5695 5694 5694 5694 5693 5692 5691 5689 5688 5686 5684 5683 5682 5680 5679 5679 5679 5679 5680 5680 5681 5681 5682 5682 5683 5683
5749 5743 5740 5736 5733 5728 5724 5719 5714 5710 5706 5702 5699 5696 5694 5692 5690 5688 5687 5686 5686 5686 5686 5685 5684 5684 5683 5682 5681 5680 5678 5678 5677 5677 5676 5677 5677 5677 5678 5678 5678 5679 5679 5679
5741 5736 5731 5727 5723 5718 5715 5710 5705 5701 5697 5694 5691 5688 5686 5684 5682 5680 5679 5678 5678 5678 5678 5678 5678 5677 5677 5676 5676 5675 5674 5674 5674 5674 5674 5674 5674 5674 5674 5675 5675 5675 5675 5675